{"data":{"norad_id":57068,"intl_designator":"2023-088W","name":"STARLINK-5844","alt_names":[],"object_type":"PAYLOAD","status":"ACTIVE","operator":null,"country":"US","launch_date":"2023-06-22","launch_site_code":"AFWTR","launch_vehicle":null,"mission":null,"orbit_class":"UNKNOWN","rcs_meters":null,"size_class":null,"mass_kg":null,"dimensions":null,"purposes":["comms"],"wikipedia_slug":null,"has_3d_model":false,"image_url":null,"decayed_at":null,"tle_current":{"epoch":"2026-05-25T01:58:11.121024Z","epoch_age_seconds":68782,"freshness":"FRESH","line1":"1 57068U 23088W   26145.08207316 -.00003394  00000+0 -11384-3 0  9992","line2":"2 57068  43.0048  42.8101 0001008 262.0966  97.9771 15.27591965161977","mean_motion":15.27591965,"eccentricity":0.0001008,"inclination_deg":43.0048,"raan_deg":42.8101,"arg_perigee_deg":262.0966,"mean_anomaly_deg":97.9771,"bstar":-0.00011384,"rev_number":16197,"period_min":94.266010360954,"perigee_km":482.32166481203,"apogee_km":483.70487270621,"semimajor_km":6861.1502687591,"source":"CELESTRAK","updated_at":"2026-05-25T13:38:18.212337Z"}}}